Hourly Data Report for January 11, 2020

TORONTO CITY
ONTARIO
Current Station Operator: ECCC - MSC

43°40'00.000" N
79°24'00.000" W
112.50 m
6158355
71508
XTO

Download Data

Hourly Data (January 2020)
Hourly Data Report for January 11, 2020
TIME
LST
Temp Definition
°C
Dew Point Definition
°C
Rel Hum Definition
%
Precip. Amount Definition
mm

Wind Dir Definition
10's deg

Wind Spd Definition
km/h
Visibility Definition
km
Stn Press Definition
kPa
Hmdx Definition


Wind Chill Definition


Weather Definition


00:00 7.1 6.0 93 0.8       100.61     LegendNANA
01:00 7.0 6.0 93 0.3       100.46     LegendNANA
02:00 7.4 6.4 93 1.0       100.36     LegendNANA
03:00 7.7 6.7 93 2.7       100.27     LegendNANA
04:00 7.8 6.8 93 1.8       100.14     LegendNANA
05:00 9.5 8.4 93 1.9       99.94     LegendNANA
06:00 9.7 8.6 93 0.2       99.80     LegendNANA
07:00 9.6 8.3 91 0.9       99.68     LegendNANA
08:00 9.9 8.2 89 0.0       99.56     LegendNANA
09:00 11.2 8.4 83 0.0       99.52     LegendNANA
10:00 11.0 8.8 86 3.1       99.66     LegendNANA
11:00 11.3 9.7 90 2.9       99.61     LegendNANA
12:00 11.6 10.1 91 1.6       99.58     LegendNANA
13:00 4.9 3.4 90 3.0       99.59     LegendNANA
14:00 4.8 3.1 89 7.0       99.47     LegendNANA
15:00 4.5 2.8 89 3.9       99.48     LegendNANA
16:00 4.4 2.8 89 3.4       99.43     LegendNANA
17:00 4.2 2.6 90 5.9       99.57     LegendNANA
18:00 3.8 2.3 90 4.2       99.58     LegendNANA
19:00 3.6 2.1 90 1.4       99.63     LegendNANA
20:00 3.4 1.9 90 1.5       99.64     LegendNANA
21:00 3.1 1.6 90 2.3       99.51     LegendNANA
22:00 3.1 1.7 90 2.1       99.55     LegendNANA
23:00 2.7 1.4 91 2.1       99.43     LegendNANA

Notes on Data Quality.

Legend

  • E = Estimated
  • M = Missing
  • NA = Not Available*
  • [empty] = Indicates an unobserved value
Date modified: